Regional Weather Roundup
Issued by NWS

Home | Current Version | Previous Version | Text Only | Print | Product List | Glossary Off
Versions: 1 2 3 4 5 6 7 8 9 10 11 12 13 14 15 16 17 18 19 20 21 22 23 24 25 26 27 28 29 30 31 32 33 34 35 36 37 38 39 40 41 42 43 44 45 46 47 48 49 50

000
ASUS43 KLSX 260707
RWRMO

WEATHER SUMMARY FOR MISSOURI
NATIONAL WEATHER SERVICE SPRINGFIELD MO
200 AM CDT THU APR 26 2018

NOTE: "FAIR" INDICATES FEW OR NO CLOUDS BELOW 12,000 FEET WITH NO
       SIGNIFICANT WEATHER AND/OR OBSTRUCTIONS TO VISIBILITY.
       CURRENT SKY AND/OR WEATHER CONDITIONS ARE NOT AVAILABLE FOR
       CHILLICOTHE AND FARMINGTON.

MOZ001>031-035>038-043-044-053-054-260800-
...NORTHERN AND WESTERN MISSOURI...

CITY           SKY/WX    TMP DP  RH WIND       PRES   REMARKS
KANSAS CTY INT CLEAR     43  42  97 W5        30.00F
KANSAS C DTWN  PTCLDY    45  43  93 CALM      29.99F
LEE`S SUMMIT   PTCLDY    43  43 100 NW5       29.99F FOG
ST JOSEPH      CLEAR     38  37  97 CALM      30.00F
CHILLICOTHE      N/A     40  37  89 CALM      30.00S
KIRKSVILLE     FOG       34  34 100 W5        29.97F VSB 1/4 WCI  30

$$
MOZ066>068-077>081-088>096-101>105-260800-
...SOUTHWEST MISSOURI...

CITY           SKY/WX    TMP DP  RH WIND       PRES   REMARKS
SPRINGFIELD    CLOUDY    50  47  89 N9        29.96S
JOPLIN         CLOUDY    50  49  96 NE6       29.98F
BRANSON        LGT RAIN  50  50 100 CALM      29.95S

$$
MOZ032>034-039>042-045>050-055>058-069>072-260800-
...CENTRAL MISSOURI...

CITY           SKY/WX    TMP DP  RH WIND       PRES   REMARKS
COLUMBIA       CLOUDY    50  50 100 NW5       29.97F FOG
JEFFERSON CITY CLOUDY    50  49  96 NW3       29.97F FOG
ROLLA          CLOUDY    48  47  96 N6        29.95F FOG
SEDALIA        CLOUDY    49  49 100 NW3       29.98F FOG
WHITEMAN AFB   MOCLDY    46  45  98 NW3       29.94F FOG
WARRENSBURG    FOG       45  43  93 CALM      29.99F VSB 1/4
OSAGE BEACH    CLOUDY    49  48  97 N5        29.98F FOG

$$
MOZ051-052-059>065-260800-
...EAST CENTRAL MISSOURI...

CITY           SKY/WX    TMP DP  RH WIND       PRES   REMARKS
ST LOUIS INTL  LGT RAIN  56  45  66 N3        29.93F
SPIRIT OF STL  LGT RAIN  53  49  86 SW3       29.93F
ST CHARLES     MOCLDY    56  41  57 N8        29.93F

$$
MOZ072>076-082>087-097>100-106>115-260800-
...SOUTH CENTRAL AND SOUTHEAST MISSOURI...

CITY           SKY/WX    TMP DP  RH WIND       PRES   REMARKS
CAPE GIRARDEAU CLOUDY    56  53  90 N5        29.90F
FARMINGTON     LGT RAIN  51  50  96 NW10      29.93F
POPLAR BLUFF   CLOUDY    56  52  86 N10       29.89F
WEST PLAINS    CLOUDY    51  48  89 N9        29.93F

$$




USA.gov is the U.S. government's official web portal to all federal, state and local government web resources and services.